Time,TemperatureF,DewpointF,PressureIn,WindDirection,WindDirectionDegrees,WindSpeedMPH,WindSpeedGustMPH,Humidity,HourlyPrecipIn,Conditions,Clouds,dailyrainin,SoftwareType,DateUTC
2013-02-06 07:45:00,12.1,6.8,29.97,ESE,110,0.0,0.0,79,0.00,,,0.00,Wunderground v.1.15,2013-02-06 12:45:00,
2013-02-06 07:55:00,12.3,7.0,29.98,ESE,113,0.0,0.0,79,0.00,,,0.00,Wunderground v.1.15,2013-02-06 12:55:00,
2013-02-06 08:00:00,12.5,7.2,29.98,ESE,113,0.0,0.0,79,0.00,,,0.00,Wunderground v.1.15,2013-02-06 13:00:00,
2013-02-06 08:10:00,12.8,7.5,29.98,ESE,109,0.0,0.0,79,0.00,,,0.00,Wunderground v.1.15,2013-02-06 13:10:00,
2013-02-06 08:15:00,13.1,8.1,29.97,ESE,113,0.0,1.0,80,0.00,,,0.00,Wunderground v.1.15,2013-02-06 13:15:00,
2013-02-06 08:20:00,13.4,8.1,29.97,SE,124,0.0,0.0,79,0.00,,,0.00,Wunderground v.1.15,2013-02-06 13:20:00,
2013-02-06 08:30:00,13.6,7.7,29.97,ESE,122,0.0,1.0,77,0.00,,,0.00,Wunderground v.1.15,2013-02-06 13:30:00,
2013-02-06 08:35:00,13.6,8.0,29.97,ESE,122,0.0,1.0,78,0.00,,,0.00,Wunderground v.1.15,2013-02-06 13:35:00,
2013-02-06 08:45:00,14.1,8.5,29.97,ESE,121,0.0,1.0,78,0.00,,,0.00,Wunderground v.1.15,2013-02-06 13:45:00,
2013-02-06 08:50:00,14.5,8.9,29.97,ESE,122,0.0,0.0,78,0.00,,,0.00,Wunderground v.1.15,2013-02-06 13:50:00,
2013-02-06 08:55:00,14.7,8.8,29.97,NE,34,0.0,0.0,77,0.00,,,0.00,Wunderground v.1.15,2013-02-06 13:55:00,
2013-02-06 09:05:00,15.3,9.4,29.97,ESE,117,0.0,0.0,77,0.00,,,0.00,Wunderground v.1.15,2013-02-06 14:05:00,
2013-02-06 09:10:00,15.6,9.4,29.97,NE,46,0.0,0.0,76,0.00,,,0.00,Wunderground v.1.15,2013-02-06 14:10:00,
2013-02-06 09:20:00,16.2,10.0,29.96,SE,128,0.0,0.0,76,0.00,,,0.00,Wunderground v.1.15,2013-02-06 14:20:00,
2013-02-06 09:25:00,16.3,9.8,29.96,SE,136,1.0,2.0,75,0.00,,,0.00,Wunderground v.1.15,2013-02-06 14:25:00,
2013-02-06 09:35:00,17.3,10.4,29.96,SSE,150,0.0,1.0,74,0.00,,,0.00,Wunderground v.1.15,2013-02-06 14:35:00,
2013-02-06 09:40:00,17.7,10.8,29.95,SE,141,1.0,1.0,74,0.00,,,0.00,Wunderground v.1.15,2013-02-06 14:40:00,
2013-02-06 09:50:00,19.3,11.7,29.95,ESE,115,1.0,1.0,72,0.00,,,0.00,Wunderground v.1.15,2013-02-06 14:50:00,
2013-02-06 09:55:00,19.7,11.8,29.95,SE,139,0.0,1.0,71,0.00,,,0.00,Wunderground v.1.15,2013-02-06 14:55:00,
2013-02-06 10:00:00,20.2,12.0,29.95,ESE,115,0.0,0.0,70,0.00,,,0.00,Wunderground v.1.15,2013-02-06 15:00:00,
2013-02-06 10:10:00,20.8,12.6,29.94,ENE,76,0.0,0.0,70,0.00,,,0.00,Wunderground v.1.15,2013-02-06 15:10:00,
2013-02-06 10:15:00,21.1,12.8,29.94,SSE,150,0.0,1.0,70,0.00,,,0.00,Wunderground v.1.15,2013-02-06 15:15:00,
2013-02-06 10:25:00,21.6,13.0,29.94,SE,134,1.0,2.0,69,0.00,,,0.00,Wunderground v.1.15,2013-02-06 15:25:00,
2013-02-06 10:30:00,21.8,13.2,29.94,ESE,121,1.0,2.0,69,0.00,,,0.00,Wunderground v.1.15,2013-02-06 15:30:00,
2013-02-06 10:40:00,21.9,13.0,29.93,SE,129,2.0,2.0,68,0.00,,,0.00,Wunderground v.1.15,2013-02-06 15:40:00,
2013-02-06 10:45:00,22.3,13.3,29.93,East,83,2.0,2.0,68,0.00,,,0.00,Wunderground v.1.15,2013-02-06 15:45:00,
2013-02-06 10:55:00,23.5,14.5,29.93,ESE,117,2.0,3.0,68,0.00,,,0.00,Wunderground v.1.15,2013-02-06 15:55:00,
2013-02-06 11:00:00,24.3,14.9,29.93,WSW,250,2.0,2.0,67,0.00,,,0.00,Wunderground v.1.15,2013-02-06 16:00:00,
2013-02-06 11:10:00,25.5,15.4,29.92,SE,141,0.0,1.0,65,0.00,,,0.00,Wunderground v.1.15,2013-02-06 16:10:00,
2013-02-06 11:15:00,25.9,15.4,29.92,ESE,120,1.0,2.0,64,0.00,,,0.00,Wunderground v.1.15,2013-02-06 16:15:00,
2013-02-06 11:20:00,25.8,15.3,29.92,ESE,118,2.0,2.0,64,0.00,,,0.00,Wunderground v.1.15,2013-02-06 16:20:00,
2013-02-06 11:30:00,26.9,16.0,29.92,SE,145,0.0,2.0,63,0.00,,,0.00,Wunderground v.1.15,2013-02-06 16:30:00,
2013-02-06 11:35:00,27.2,15.9,29.92,South,170,1.0,2.0,62,0.00,,,0.00,Wunderground v.1.15,2013-02-06 16:35:00,
2013-02-06 11:40:00,27.3,16.0,29.92,ESE,107,1.0,1.0,62,0.00,,,0.00,Wunderground v.1.15,2013-02-06 16:40:00,
2013-02-06 11:50:00,27.5,16.2,29.92,SSE,152,0.0,0.0,62,0.00,,,0.00,Wunderground v.1.15,2013-02-06 16:50:00,
2013-02-06 11:55:00,27.5,15.8,29.91,South,172,0.0,0.0,61,0.00,,,0.00,Wunderground v.1.15,2013-02-06 16:55:00,
2013-02-06 12:05:00,28.2,16.1,29.91,ESE,121,0.0,0.0,60,0.00,,,0.00,Wunderground v.1.15,2013-02-06 17:05:00,
2013-02-06 12:10:00,28.2,16.5,29.91,ESE,121,0.0,0.0,61,0.00,,,0.00,Wunderground v.1.15,2013-02-06 17:10:00,
2013-02-06 12:20:00,29.0,17.2,29.91,SW,217,1.0,4.0,61,0.00,,,0.00,Wunderground v.1.15,2013-02-06 17:20:00,
2013-02-06 12:25:00,28.9,16.7,29.90,SSW,194,2.0,4.0,60,0.00,,,0.00,Wunderground v.1.15,2013-02-06 17:25:00,
2013-02-06 12:30:00,28.8,17.0,29.91,South,187,2.0,2.0,61,0.00,,,0.00,Wunderground v.1.15,2013-02-06 17:30:00,
2013-02-06 12:40:00,28.4,17.0,29.91,SSW,198,3.0,3.0,62,0.00,,,0.00,Wunderground v.1.15,2013-02-06 17:40:00,
2013-02-06 12:45:00,28.3,17.3,29.91,WNW,284,3.0,3.0,63,0.00,,,0.00,Wunderground v.1.15,2013-02-06 17:45:00,
2013-02-06 12:55:00,28.1,18.5,29.91,SE,139,1.0,2.0,67,0.00,,,0.00,Wunderground v.1.15,2013-02-06 17:55:00,
2013-02-06 13:00:00,28.1,18.2,29.91,SSE,162,1.0,3.0,66,0.00,,,0.00,Wunderground v.1.15,2013-02-06 18:00:00,
2013-02-06 13:10:00,28.4,18.5,29.91,SSW,211,1.0,2.0,66,0.00,,,0.00,Wunderground v.1.15,2013-02-06 18:10:00,
2013-02-06 13:15:00,28.6,18.3,29.91,SSE,149,2.0,2.0,65,0.00,,,0.00,Wunderground v.1.15,2013-02-06 18:15:00,
2013-02-06 13:20:00,28.9,17.9,29.91,South,191,3.0,3.0,63,0.00,,,0.00,Wunderground v.1.15,2013-02-06 18:20:00,
2013-02-06 13:30:00,29.9,18.5,29.91,SE,145,2.0,3.0,62,0.00,,,0.00,Wunderground v.1.15,2013-02-06 18:30:00,
2013-02-06 13:40:00,29.7,17.5,29.91,ENE,64,3.0,3.0,60,0.00,,,0.00,Wunderground v.1.15,2013-02-06 18:40:00,
2013-02-06 13:45:00,29.5,17.7,29.92,NW,316,2.0,3.0,61,0.00,,,0.00,Wunderground v.1.15,2013-02-06 18:45:00,
2013-02-06 13:55:00,28.3,19.8,29.93,ESE,110,3.0,3.0,70,0.00,,,0.00,Wunderground v.1.15,2013-02-06 18:55:00,
2013-02-06 14:00:00,28.0,19.1,29.93,NW,325,3.0,3.0,69,0.00,,,0.00,Wunderground v.1.15,2013-02-06 19:00:00,
2013-02-06 14:10:00,27.4,18.6,29.93,SW,232,3.0,3.0,69,0.00,,,0.00,Wunderground v.1.15,2013-02-06 19:10:00,
2013-02-06 14:15:00,27.3,18.5,29.94,NE,51,4.0,6.0,69,0.00,,,0.00,Wunderground v.1.15,2013-02-06 19:15:00,
2013-02-06 14:25:00,27.2,18.4,29.94,SE,138,1.0,3.0,69,0.00,,,0.00,Wunderground v.1.15,2013-02-06 19:25:00,
2013-02-06 14:30:00,27.2,18.0,29.94,NNW,338,2.0,3.0,68,0.00,,,0.00,Wunderground v.1.15,2013-02-06 19:30:00,
2013-02-06 14:35:00,27.2,18.0,29.95,WSW,252,2.0,3.0,68,0.00,,,0.00,Wunderground v.1.15,2013-02-06 19:35:00,
2013-02-06 14:45:00,26.5,17.0,29.96,WSW,252,4.0,5.0,67,0.00,,,0.00,Wunderground v.1.15,2013-02-06 19:45:00,
2013-02-06 14:50:00,26.2,16.4,29.96,NE,46,5.0,5.0,66,0.00,,,0.00,Wunderground v.1.15,2013-02-06 19:50:00,
2013-02-06 15:00:00,25.7,15.6,29.96,SSW,197,3.0,3.0,65,0.00,,,0.00,Wunderground v.1.15,2013-02-06 20:00:00,
2013-02-06 15:10:00,25.8,16.0,29.97,West,269,2.0,2.0,66,0.00,,,0.00,Wunderground v.1.15,2013-02-06 20:10:00,
2013-02-06 15:15:00,25.8,15.3,29.97,SE,144,1.0,2.0,64,0.00,,,0.00,Wunderground v.1.15,2013-02-06 20:15:00,
2013-02-06 15:20:00,25.9,15.0,29.97,SE,136,1.0,2.0,63,0.00,,,0.00,Wunderground v.1.15,2013-02-06 20:20:00,
2013-02-06 15:30:00,26.1,14.1,29.97,NNE,19,2.0,2.0,60,0.00,,,0.00,Wunderground v.1.15,2013-02-06 20:30:00,
2013-02-06 15:35:00,26.1,14.1,29.97,South,191,2.0,4.0,60,0.00,,,0.00,Wunderground v.1.15,2013-02-06 20:35:00,
2013-02-06 15:40:00,26.0,13.6,29.98,South,187,3.0,3.0,59,0.00,,,0.00,Wunderground v.1.15,2013-02-06 20:40:00,
2013-02-06 15:50:00,25.9,12.3,29.98,WNW,290,2.0,2.0,56,0.00,,,0.00,Wunderground v.1.15,2013-02-06 20:50:00,
2013-02-06 15:55:00,26.0,12.4,29.98,West,280,2.0,2.0,56,0.00,,,0.00,Wunderground v.1.15,2013-02-06 20:55:00,
2013-02-06 16:05:00,25.6,11.7,29.99,North,1,4.0,4.0,55,0.00,,,0.00,Wunderground v.1.15,2013-02-06 21:05:00,
2013-02-06 16:10:00,25.3,11.4,30.00,NW,320,3.0,3.0,55,0.00,,,0.00,Wunderground v.1.15,2013-02-06 21:10:00,
2013-02-06 16:15:00,24.8,10.9,30.01,NNW,332,3.0,6.0,55,0.00,,,0.00,Wunderground v.1.15,2013-02-06 21:15:00,
2013-02-06 16:25:00,24.0,10.2,30.01,NE,55,4.0,4.0,55,0.00,,,0.00,Wunderground v.1.15,2013-02-06 21:25:00,
2013-02-06 16:30:00,23.8,10.0,30.02,NNW,329,5.0,5.0,55,0.00,,,0.00,Wunderground v.1.15,2013-02-06 21:30:00,
2013-02-06 16:35:00,23.5,9.7,30.03,NW,309,4.0,5.0,55,0.00,,,0.00,Wunderground v.1.15,2013-02-06 21:35:00,
2013-02-06 16:45:00,23.1,7.6,30.03,NNW,342,3.0,3.0,51,0.00,,,0.00,Wunderground v.1.15,2013-02-06 21:45:00,
2013-02-06 16:50:00,22.9,8.3,30.04,West,281,4.0,4.0,53,0.00,,,0.00,Wunderground v.1.15,2013-02-06 21:50:00,
2013-02-06 17:00:00,22.5,8.3,30.04,WNW,294,2.0,2.0,54,0.00,,,0.00,Wunderground v.1.15,2013-02-06 22:00:00,
2013-02-06 17:05:00,22.3,8.2,30.05,North,9,2.0,5.0,54,0.00,,,0.00,Wunderground v.1.15,2013-02-06 22:05:00,
2013-02-06 17:15:00,21.8,7.7,30.05,SSW,212,2.0,3.0,54,0.00,,,0.00,Wunderground v.1.15,2013-02-06 22:15:00,
2013-02-06 17:20:00,21.5,7.4,30.05,NW,321,2.0,2.0,54,0.00,,,0.00,Wunderground v.1.15,2013-02-06 22:20:00,
2013-02-06 17:30:00,21.1,6.6,30.06,NW,322,2.0,4.0,53,0.00,,,0.00,Wunderground v.1.15,2013-02-06 22:30:00,
2013-02-06 17:35:00,20.9,6.0,30.06,West,281,2.0,4.0,52,0.00,,,0.00,Wunderground v.1.15,2013-02-06 22:35:00,
2013-02-06 17:40:00,20.8,5.9,30.07,North,356,3.0,17.0,52,0.00,,,0.00,Wunderground v.1.15,2013-02-06 22:40:00,
2013-02-06 17:50:00,20.6,4.0,30.08,NW,325,5.0,5.0,48,0.00,,,0.00,Wunderground v.1.15,2013-02-06 22:50:00,
2013-02-06 17:55:00,20.5,2.5,30.08,NW,319,4.0,6.0,45,0.00,,,0.00,Wunderground v.1.15,2013-02-06 22:55:00,
2013-02-06 18:05:00,20.1,2.6,30.09,NNW,332,4.0,4.0,46,0.00,,,0.00,Wunderground v.1.15,2013-02-06 23:05:00,
2013-02-06 18:10:00,19.9,2.4,30.10,North,357,3.0,5.0,46,0.00,,,0.00,Wunderground v.1.15,2013-02-06 23:10:00,
2013-02-06 18:15:00,19.7,2.2,30.10,NNW,330,2.0,5.0,46,0.00,,,0.00,Wunderground v.1.15,2013-02-06 23:15:00,
2013-02-06 18:25:00,19.1,2.1,30.10,West,280,1.0,2.0,47,0.00,,,0.00,Wunderground v.1.15,2013-02-06 23:25:00,
2013-02-06 18:30:00,18.8,1.9,30.10,NNW,345,1.0,3.0,47,0.00,,,0.00,Wunderground v.1.15,2013-02-06 23:30:00,
2013-02-06 18:35:00,18.6,2.6,30.10,NW,305,1.0,3.0,49,0.00,,,0.00,Wunderground v.1.15,2013-02-06 23:35:00,
2013-02-06 18:45:00,18.3,1.9,30.11,SE,143,2.0,4.0,48,0.00,,,0.00,Wunderground v.1.15,2013-02-06 23:45:00,
2013-02-06 18:55:00,17.9,1.5,30.12,South,172,1.0,4.0,48,0.00,,,0.00,Wunderground v.1.15,2013-02-06 23:55:00,
2013-02-06 19:00:00,17.7,1.3,30.12,NW,325,1.0,2.0,48,0.00,,,0.00,Wunderground v.1.15,2013-02-07 00:00:00,
2013-02-06 19:05:00,17.6,0.8,30.13,ESE,113,3.0,3.0,47,0.00,,,0.00,Wunderground v.1.15,2013-02-07 00:05:00,
2013-02-06 19:15:00,17.3,-0.9,30.13,WNW,294,3.0,3.0,44,0.00,,,0.00,Wunderground v.1.15,2013-02-07 00:15:00,
2013-02-06 19:20:00,17.1,-1.1,30.13,East,99,2.0,5.0,44,0.00,,,0.00,Wunderground v.1.15,2013-02-07 00:20:00,
2013-02-06 19:30:00,16.8,-3.9,30.14,WNW,290,2.0,2.0,39,0.00,,,0.00,Wunderground v.1.15,2013-02-07 00:30:00,
2013-02-06 19:35:00,16.6,-3.6,30.14,North,350,2.0,5.0,40,0.00,,,0.00,Wunderground v.1.15,2013-02-07 00:35:00,
2013-02-06 19:40:00,16.4,-3.2,30.14,WSW,256,2.0,2.0,41,0.00,,,0.00,Wunderground v.1.15,2013-02-07 00:40:00,
2013-02-06 19:50:00,15.9,-2.7,30.14,SW,226,1.0,4.0,43,0.00,,,0.00,Wunderground v.1.15,2013-02-07 00:50:00,
2013-02-06 19:55:00,15.6,-3.0,30.15,WNW,288,2.0,5.0,43,0.00,,,0.00,Wunderground v.1.15,2013-02-07 00:55:00,
2013-02-06 20:05:00,15.4,-3.1,30.15,WNW,289,2.0,5.0,43,0.00,,,0.00,Wunderground v.1.15,2013-02-07 01:05:00,
2013-02-06 20:10:00,15.2,-3.8,30.15,NNW,327,2.0,6.0,42,0.00,,,0.00,Wunderground v.1.15,2013-02-07 01:10:00,
2013-02-06 20:15:00,14.9,-3.6,30.16,NE,52,2.0,6.0,43,0.00,,,0.00,Wunderground v.1.15,2013-02-07 01:15:00,
2013-02-06 20:25:00,14.6,-3.9,30.16,ESE,110,2.0,5.0,43,0.00,,,0.00,Wunderground v.1.15,2013-02-07 01:25:00,
2013-02-06 20:30:00,14.4,-3.6,30.17,WSW,253,1.0,1.0,44,0.00,,,0.00,Wunderground v.1.15,2013-02-07 01:30:00,
2013-02-06 20:40:00,14.0,-3.0,30.17,NNW,340,2.0,3.0,46,0.00,,,0.00,Wunderground v.1.15,2013-02-07 01:40:00,
2013-02-06 20:45:00,13.8,-3.7,30.18,NNW,344,2.0,4.0,45,0.00,,,0.00,Wunderground v.1.15,2013-02-07 01:45:00,
2013-02-06 20:55:00,13.4,-3.1,30.18,NW,325,2.0,2.0,47,0.00,,,0.00,Wunderground v.1.15,2013-02-07 01:55:00,
2013-02-06 21:00:00,13.2,-3.7,30.19,WSW,248,1.0,1.0,46,0.00,,,0.00,Wunderground v.1.15,2013-02-07 02:00:00,
2013-02-06 21:05:00,13.0,-3.0,30.19,North,356,1.0,1.0,48,0.00,,,0.00,Wunderground v.1.15,2013-02-07 02:05:00,
2013-02-06 21:15:00,12.4,-3.2,30.20,SSW,201,1.0,1.0,49,0.00,,,0.00,Wunderground v.1.15,2013-02-07 02:15:00,
2013-02-06 21:25:00,12.1,-3.4,30.20,NW,316,2.0,5.0,49,0.00,,,0.00,Wunderground v.1.15,2013-02-07 02:25:00,
2013-02-06 21:30:00,11.9,-3.2,30.21,NW,318,3.0,10.0,50,0.00,,,0.00,Wunderground v.1.15,2013-02-07 02:30:00,
2013-02-06 21:35:00,11.6,-3.1,30.22,ESE,120,5.0,10.0,51,0.00,,,0.00,Wunderground v.1.15,2013-02-07 02:35:00,
2013-02-06 21:45:00,11.2,-3.0,30.22,NW,324,3.0,7.0,52,0.00,,,0.00,Wunderground v.1.15,2013-02-07 02:45:00,
2013-02-06 21:50:00,11.1,-3.1,30.22,WNW,297,4.0,4.0,52,0.00,,,0.00,Wunderground v.1.15,2013-02-07 02:50:00,
2013-02-06 22:00:00,10.7,-3.1,30.22,NNW,332,3.0,3.0,53,0.00,,,0.00,Wunderground v.1.15,2013-02-07 03:00:00,
2013-02-06 22:05:00,10.6,-3.2,30.22,West,262,3.0,4.0,53,0.00,,,0.00,Wunderground v.1.15,2013-02-07 03:05:00,
2013-02-06 22:10:00,10.5,-3.3,30.22,NNE,33,4.0,4.0,53,0.00,,,0.00,Wunderground v.1.15,2013-02-07 03:10:00,
2013-02-06 22:20:00,10.4,-3.0,30.23,SW,231,4.0,4.0,54,0.00,,,0.00,Wunderground v.1.15,2013-02-07 03:20:00,
2013-02-06 22:25:00,10.3,-3.5,30.23,NW,324,4.0,4.0,53,0.00,,,0.00,Wunderground v.1.15,2013-02-07 03:25:00,
2013-02-06 22:35:00,10.0,-3.4,30.23,NNW,334,3.0,6.0,54,0.00,,,0.00,Wunderground v.1.15,2013-02-07 03:35:00,
2013-02-06 22:40:00,9.9,-3.8,30.23,SE,138,2.0,2.0,53,0.00,,,0.00,Wunderground v.1.15,2013-02-07 03:40:00,
2013-02-06 22:50:00,9.9,-3.8,30.23,WNW,288,3.0,6.0,53,0.00,,,0.00,Wunderground v.1.15,2013-02-07 03:50:00,
2013-02-06 22:55:00,9.8,-3.9,30.24,West,274,2.0,6.0,53,0.00,,,0.00,Wunderground v.1.15,2013-02-07 03:55:00,